Flag for Angola Weather past 2 weeks in Luanda, Angola

Now
70 °F

Passing clouds.


Feels Like: 70 °F
Forecast: 66 / 74 °F
Wind: 6 mph from South

Location: Luanda Airport

Current Time: Jul 31, 2014 at 12:07:12 AM

Latest Report: Jul 30, 2014 at 11:00 PM


Visibility: N/A

Pressure: 30.04 "Hg

Humidity: 88%

Dew point: 66 °F

Location of LuandaLocation

Historic Weather in Luanda — Graph

°F

Luanda temperature yesterday

Maximum temperature yesterday: 77 °F (at 1:00 PM)
Minimum temperature yesterday: 68 °F (at 4:00 AM)
Average temperature yesterday: 71 °F

Past Weeks' High & Low Weather Summary

 TemperatureHumidityPressure
High77 °F (Jul 20, 1:00 PM)94% (Jul 16, 12:00 AM)30.30 "Hg (Jul 16, 12:00 AM)
Low63 °F (Jul 20, 4:00 AM)38% (Jul 19, 7:00 PM)29.89 "Hg (Jul 28, 3:00 PM)
Average69 °F80%30.03 "Hg
* Reported Jul 15 11:00 PM — Jul 30 11:00 PM, Luanda, Weather by CustomWeather, © 2014

Note: Actual official high and low records may vary slightly from our data, if they occured in-between our weather recording intervals... More about our weather records

Advertising

Luanda weather history for previous 24 hours

 ConditionsComfort  
Time TempWeatherWind HumidityBarometerVisibility
11:00 PM
Jul 30
70 °FPassing clouds.6 mph88%30.04 "HgN/A
10:00 PM68 °FPassing clouds.5 mph94%30.04 "HgN/A
9:00 PM68 °FPassing clouds.6 mph88%30.04 "HgN/A
8:00 PM68 °FPassing clouds.5 mph88%30.01 "HgN/A
7:00 PM70 °FClear.6 mph83%29.98 "Hg10 mi
6:00 PM70 °FSunny.7 mph83%29.95 "Hg10 mi
5:00 PM73 °FSunny.7 mph74%29.92 "Hg10 mi
4:00 PM73 °FSunny.7 mph74%29.92 "Hg10 mi
3:30 PM75 °FSunny.7 mph69%29.95 "Hg10 mi
3:00 PM75 °FScattered clouds.6 mph69%29.98 "HgN/A
2:00 PM75 °FScattered clouds.6 mph69%29.98 "HgN/A
1:00 PM77 °FPartly sunny.6 mph65%30.01 "HgN/A
12:00 PM75 °FPartly sunny.5 mph69%30.04 "Hg6 mi
11:00 AM73 °FPartly sunny.2 mph74%30.07 "Hg6 mi
10:00 AM70 °FPartly sunny.3 mph83%30.07 "Hg5 mi
9:00 AM70 °FPartly sunny.5 mph88%30.07 "Hg4 mi
8:00 AM70 °FPartly sunny.3 mph88%30.07 "Hg4 mi
6:00 AM68 °FPassing clouds.2 mph94%30.04 "HgN/A
5:00 AM68 °FPassing clouds.2 mph88%30.04 "HgN/A
4:00 AM68 °FPassing clouds.2 mph88%30.01 "HgN/A
Weather by CustomWeather, © 2014

See weather overviewHow to use our weather pages